<?xml version="1.0"?>
<gpx xmlns="http://www.topografix.com/GPX/1/1" xmlns:xsi="http://www.w3.org/2001/XMLSchema-instance" version="1.1" creator="GPX RubyGem 1.0.0 -- http://dougfales.github.io/gpx/" xsi:schemaLocation="http://www.topografix.com/GPX/1/1 http://www.topografix.com/GPX/1/1/gpx.xsd">
  <metadata>
    <name/>
    <time>2026-05-10T22:59:09+00:00</time>
    <bound minlat="90.0" minlon="180.0" maxlat="-90.0" maxlon="-180.0"/>
  </metadata>
  <trk>
    <name/>
    <trkseg>
      <trkpt lat="50.479844" lon="4.135741">
        <time>1970-01-01T00:00:00+00:00</time>
        <ele>72.0</ele>
      </trkpt>
      <trkpt lat="50.480135" lon="4.135856">
        <time>1970-01-01T00:00:00+00:00</time>
        <ele>72.0</ele>
      </trkpt>
      <trkpt lat="50.480405" lon="4.135989">
        <time>1970-01-01T00:00:00+00:00</time>
        <ele>74.0</ele>
      </trkpt>
      <trkpt lat="50.480637" lon="4.13621">
        <time>1970-01-01T00:00:00+00:00</time>
        <ele>77.0</ele>
      </trkpt>
      <trkpt lat="50.480805" lon="4.136459">
        <time>1970-01-01T00:00:00+00:00</time>
        <ele>78.0</ele>
      </trkpt>
      <trkpt lat="50.480972" lon="4.136845">
        <time>1970-01-01T00:00:00+00:00</time>
        <ele>78.0</ele>
      </trkpt>
      <trkpt lat="50.481037" lon="4.137054">
        <time>1970-01-01T00:00:00+00:00</time>
        <ele>78.0</ele>
      </trkpt>
      <trkpt lat="50.481059" lon="4.137123">
        <time>1970-01-01T00:00:00+00:00</time>
        <ele>79.0</ele>
      </trkpt>
      <trkpt lat="50.481205" lon="4.137642">
        <time>1970-01-01T00:00:00+00:00</time>
        <ele>82.0</ele>
      </trkpt>
      <trkpt lat="50.481228" lon="4.137625">
        <time>1970-01-01T00:00:00+00:00</time>
        <ele>81.0</ele>
      </trkpt>
      <trkpt lat="50.481294" lon="4.137833">
        <time>1970-01-01T00:00:00+00:00</time>
        <ele>84.0</ele>
      </trkpt>
      <trkpt lat="50.481283" lon="4.137864">
        <time>1970-01-01T00:00:00+00:00</time>
        <ele>84.0</ele>
      </trkpt>
      <trkpt lat="50.481804" lon="4.139862">
        <time>1970-01-01T00:00:00+00:00</time>
        <ele>99.0</ele>
      </trkpt>
      <trkpt lat="50.481804" lon="4.139862">
        <time>1970-01-01T00:00:00+00:00</time>
        <ele>99.0</ele>
      </trkpt>
      <trkpt lat="50.481283" lon="4.137864">
        <time>1970-01-01T00:00:00+00:00</time>
        <ele>84.0</ele>
      </trkpt>
      <trkpt lat="50.481294" lon="4.137833">
        <time>1970-01-01T00:00:00+00:00</time>
        <ele>84.0</ele>
      </trkpt>
      <trkpt lat="50.481228" lon="4.137625">
        <time>1970-01-01T00:00:00+00:00</time>
        <ele>81.0</ele>
      </trkpt>
      <trkpt lat="50.481205" lon="4.137642">
        <time>1970-01-01T00:00:00+00:00</time>
        <ele>82.0</ele>
      </trkpt>
      <trkpt lat="50.481059" lon="4.137123">
        <time>1970-01-01T00:00:00+00:00</time>
        <ele>79.0</ele>
      </trkpt>
      <trkpt lat="50.481037" lon="4.137054">
        <time>1970-01-01T00:00:00+00:00</time>
        <ele>78.0</ele>
      </trkpt>
      <trkpt lat="50.480972" lon="4.136845">
        <time>1970-01-01T00:00:00+00:00</time>
        <ele>78.0</ele>
      </trkpt>
      <trkpt lat="50.480805" lon="4.136459">
        <time>1970-01-01T00:00:00+00:00</time>
        <ele>78.0</ele>
      </trkpt>
      <trkpt lat="50.480637" lon="4.13621">
        <time>1970-01-01T00:00:00+00:00</time>
        <ele>77.0</ele>
      </trkpt>
      <trkpt lat="50.480405" lon="4.135989">
        <time>1970-01-01T00:00:00+00:00</time>
        <ele>74.0</ele>
      </trkpt>
      <trkpt lat="50.480135" lon="4.135856">
        <time>1970-01-01T00:00:00+00:00</time>
        <ele>72.0</ele>
      </trkpt>
      <trkpt lat="50.479844" lon="4.135741">
        <time>1970-01-01T00:00:00+00:00</time>
        <ele>72.0</ele>
      </trkpt>
    </trkseg>
  </trk>
</gpx>
